Date String (YYYY-MM-DD hh:mm:ss) UTC,Instrument flags,absolute air pressure of the measurement (hPa),sample flow rate (lpm),inlet stack bypass flow (lpm),air temperature of the measurement (°C),ambient temperature measured by the external sensor (°C),aerosol sample conditioner tube jacket temperature (°C),OPC LED temperature (°C),internal box temperature (°C),relative humidity of the measurement (%),span deviation,mass concentration of particles derived from Lorenz-Mie calculation of OPC scattering (μg/m³),mass concentration of particles derived from Lorenz-Mie calculation of OPC scattering (μg/m³),mass concentration of particles derived from Lorenz-Mie calculation of OPC scattering (μg/m³)
DateTimeUTC,F1_M11,P_M11,Q1_M11,Q2_M11,T1_M11,T2_M11,T3_M11,T4_M11,T5_M11,U1_M11,ZSPAN_M11,X2_M11,X0_M11,X1_M11
2023-07-19 19:00:00,SystemResetWarning,0836.4,4.99,000.00,029.1,027.8,000.0,037.4,030.8,32.2,0000.0,0005.17,0013.39,0004.45
2023-07-19 19:01:00,SystemResetWarning,0836.4,5.00,000.00,029.1,027.9,000.0,037.4,030.9,32.5,0000.0,0005.10,0013.48,0004.39
2023-07-19 19:02:00,SystemResetWarning,0836.4,5.00,000.00,029.1,026.6,000.0,037.3,030.7,32.8,0000.0,0005.00,0012.90,0004.31
2023-07-19 19:03:00,SystemResetWarning,0836.4,5.00,000.00,029.1,025.2,000.0,037.2,030.5,31.8,0000.0,0004.94,0012.61,0004.25
2023-07-19 19:04:00,SystemResetWarning,0836.4,5.01,000.00,029.0,025.1,000.0,037.2,030.3,32.4,0000.0,0004.91,0012.69,0004.21
2023-07-19 19:05:00,SystemResetWarning,0836.4,5.01,000.00,028.9,025.4,000.0,037.2,030.2,33.1,0000.0,0004.87,0013.27,0004.16
2023-07-19 19:06:00,SystemResetWarning,0836.3,4.99,000.00,028.9,025.8,000.0,037.2,030.3,32.9,0000.0,0004.86,0012.85,0004.12
2023-07-19 19:07:00,SystemResetWarning,0836.4,5.00,000.00,028.9,026.2,000.0,037.3,030.4,33.9,0000.0,0004.83,0012.80,0004.09
2023-07-19 19:08:00,SystemResetWarning,0836.4,5.00,000.00,028.9,026.7,000.0,037.3,030.5,34.1,0000.0,0004.77,0012.82,0004.06
2023-07-19 19:09:00,SystemResetWarning,0836.4,5.01,000.00,028.9,027.0,000.0,037.3,030.6,33.8,0000.0,0004.76,0012.85,0004.04
2023-07-19 19:10:00,SystemResetWarning,0836.4,4.99,000.00,029.0,027.3,000.0,037.3,030.6,33.8,0000.0,0004.72,0013.01,0004.02
2023-07-19 19:11:00,SystemResetWarning,0836.4,4.99,000.00,029.0,027.6,000.0,037.4,030.7,32.4,0000.0,0004.70,0013.36,0004.02
2023-07-19 19:12:00,SystemResetWarning,0836.3,4.99,000.00,029.0,027.3,000.0,037.3,030.7,32.9,0000.0,0004.70,0013.61,0004.02
2023-07-19 19:13:00,SystemResetWarning,0836.3,5.00,000.00,029.0,025.7,000.0,037.2,030.5,33.0,0000.0,0004.73,0014.48,0004.03
2023-07-19 19:14:00,SystemResetWarning,0836.2,5.00,000.00,028.9,024.9,000.0,037.1,030.4,32.4,0000.0,0004.69,0015.32,0004.03
2023-07-19 19:15:00,SystemResetWarning,0836.2,5.01,000.00,028.9,025.0,000.0,037.1,030.2,32.1,0000.0,0004.62,0014.65,0004.02
2023-07-19 19:16:00,SystemResetWarning,0836.3,5.00,000.00,028.8,025.4,000.0,037.1,030.1,32.6,0000.0,0004.64,0013.53,0004.03
2023-07-19 19:17:00,SystemResetWarning,0836.3,4.99,000.00,028.8,025.8,000.0,037.2,030.2,33.0,0000.0,0004.60,0013.33,0004.03
2023-07-19 19:18:00,SystemResetWarning,0836.3,5.00,000.00,028.8,026.3,000.0,037.2,030.3,33.2,0000.0,0004.61,0012.65,0004.02
2023-07-19 19:19:00,SystemResetWarning,0836.3,5.01,000.00,028.8,026.7,000.0,037.2,030.4,32.8,0000.0,0004.61,0012.07,0004.03
2023-07-19 19:20:00,SystemResetWarning,0836.4,5.00,000.00,028.9,027.1,000.0,037.2,030.5,33.0,0000.0,0004.64,0012.13,0004.04
2023-07-19 19:21:00,SystemResetWarning,0836.4,5.00,000.00,028.9,027.4,000.0,037.3,030.6,32.6,0000.0,0004.69,0012.02,0004.06
2023-07-19 19:22:00,SystemResetWarning,0836.5,5.00,000.00,028.9,027.6,000.0,037.3,030.7,33.0,0000.0,0004.73,0011.38,0004.07
2023-07-19 19:23:00,SystemResetWarning,0836.4,5.00,000.00,029.0,027.8,000.0,037.3,030.8,33.1,0000.0,0004.74,0010.70,0004.07
2023-07-19 19:24:00,SystemResetWarning,0836.5,4.99,000.00,029.0,027.2,000.0,037.3,030.7,33.0,0000.0,0004.70,0009.47,0004.07
2023-07-19 19:25:00,SystemResetWarning,0836.4,4.99,000.00,029.0,025.5,000.0,037.1,030.5,32.7,0000.0,0004.69,0008.62,0004.06
2023-07-19 19:26:00,SystemResetWarning,0836.4,5.01,000.00,028.9,024.8,000.0,037.1,030.3,32.7,0000.0,0004.76,0009.00,0004.06
2023-07-19 19:27:00,SystemResetWarning,0836.3,5.01,000.00,028.8,025.1,000.0,037.1,030.1,32.9,0000.0,0004.69,0009.23,0004.04
2023-07-19 19:28:00,SystemResetWarning,0836.4,4.99,000.00,028.8,025.5,000.0,037.1,030.1,32.4,0000.0,0004.67,0009.47,0004.03
2023-07-19 19:29:00,SystemResetWarning,0836.3,5.00,000.00,028.8,026.0,000.0,037.2,030.2,32.0,0000.0,0004.66,0009.71,0004.03
2023-07-19 19:30:00,SystemResetWarning,0836.4,5.01,000.00,028.8,026.4,000.0,037.2,030.3,32.5,0000.0,0004.68,0010.31,0004.01
2023-07-19 19:31:00,SystemResetWarning,0836.3,5.00,000.00,028.8,026.8,000.0,037.2,030.4,32.4,0000.0,0004.63,0010.49,0004.01
2023-07-19 19:32:00,SystemResetWarning,0836.3,5.00,000.00,028.9,027.1,000.0,037.2,030.5,31.9,0000.0,0004.63,0010.51,0004.02
2023-07-19 19:33:00,SystemResetWarning,0836.4,5.00,000.00,028.9,027.4,000.0,037.2,030.6,33.6,0000.0,0004.68,0010.57,0004.04
2023-07-19 19:34:00,SystemResetWarning,0836.4,4.99,000.00,029.0,027.7,000.0,037.3,030.7,34.6,0000.0,0004.71,0010.61,0004.08
2023-07-19 19:35:00,SystemResetWarning,0836.3,4.98,000.00,029.0,027.4,000.0,037.3,030.7,35.0,0000.0,0004.81,0010.61,0004.13
2023-07-19 19:36:00,SystemResetWarning,0836.2,5.00,000.00,029.1,025.7,000.0,037.2,030.5,35.4,0000.0,0004.88,0010.63,0004.18
2023-07-19 19:37:00,SystemResetWarning,0836.4,5.02,000.00,029.3,024.9,000.0,037.1,030.4,34.1,0000.0,0004.88,0010.99,0004.23
2023-07-19 19:38:00,SystemResetWarning,0836.3,4.98,000.00,029.4,025.0,000.0,037.1,030.3,33.5,0000.0,0004.97,0011.23,0004.30
2023-07-19 19:39:00,SystemResetWarning,0836.4,5.00,000.00,029.4,025.4,000.0,037.2,030.2,32.7,0000.0,0005.05,0011.19,0004.35
2023-07-19 19:40:00,SystemResetWarning,0836.4,5.01,000.00,029.4,025.9,000.0,037.2,030.3,32.7,0000.0,0005.08,0011.00,0004.39
2023-07-19 19:41:00,SystemResetWarning,0836.4,5.00,000.00,029.5,026.3,000.0,037.3,030.4,33.6,0000.0,0005.14,0010.61,0004.41
2023-07-19 19:42:00,SystemResetWarning,0836.4,5.00,000.00,029.5,026.8,000.0,037.4,030.5,33.8,0000.0,0005.24,0010.79,0004.43
2023-07-19 19:43:00,SystemResetWarning,0836.4,5.00,000.00,029.6,027.1,000.0,037.4,030.6,33.0,0000.0,0005.28,0011.94,0004.44
2023-07-19 19:44:00,SystemResetWarning,0836.4,5.00,000.00,029.6,027.4,000.0,037.5,030.7,32.8,0000.0,0005.27,0012.06,0004.44
2023-07-19 19:45:00,SystemResetWarning,0836.4,4.99,000.00,029.7,027.6,000.0,037.6,030.8,33.7,0000.0,0005.28,0012.10,0004.44
2023-07-19 19:46:00,SystemResetWarning,0836.4,4.99,000.00,029.7,026.8,000.0,037.5,030.8,30.1,0000.0,0005.27,0012.26,0004.44
2023-07-19 19:47:00,SystemResetWarning,0836.3,5.00,000.00,029.7,025.2,000.0,037.4,030.5,28.5,0000.0,0005.28,0012.85,0004.42
2023-07-19 19:48:00,SystemResetWarning,0836.3,5.01,000.00,029.6,024.8,000.0,037.4,030.4,29.5,0000.0,0005.32,0012.19,0004.40
2023-07-19 19:49:00,SystemResetWarning,0836.3,5.01,000.00,029.5,025.0,000.0,037.4,030.2,30.1,0000.0,0005.32,0011.82,0004.37
2023-07-19 19:50:00,SystemResetWarning,0836.3,4.99,000.00,029.4,025.4,000.0,037.5,030.2,31.3,0000.0,0005.29,0011.71,0004.36
2023-07-19 19:51:00,SystemResetWarning,0836.3,5.00,000.00,029.4,025.9,000.0,037.5,030.3,30.6,0000.0,0005.27,0011.63,0004.35
2023-07-19 19:52:00,SystemResetWarning,0836.3,5.00,000.00,029.4,026.4,000.0,037.6,030.4,30.3,0000.0,0005.21,0011.37,0004.35
2023-07-19 19:53:00,SystemResetWarning,0836.3,5.00,000.00,029.4,026.8,000.0,037.6,030.5,30.7,0000.0,0005.13,0010.90,0004.33
2023-07-19 19:54:00,SystemResetWarning,0836.3,5.00,000.00,029.4,027.1,000.0,037.6,030.6,30.2,0000.0,0005.07,0010.37,0004.33
2023-07-19 19:55:00,SystemResetWarning,0836.3,4.99,000.00,029.5,027.4,000.0,037.6,030.7,30.1,0000.0,0005.05,0010.46,0004.32
2023-07-19 19:56:00,SystemResetWarning,0836.4,4.99,000.00,029.5,027.6,000.0,037.7,030.8,29.9,0000.0,0005.04,0010.41,0004.31
2023-07-19 19:57:00,SystemResetWarning,0836.4,5.00,000.00,029.5,027.9,000.0,037.7,030.9,29.4,0000.0,0005.01,0010.20,0004.30
2023-07-19 19:58:00,SystemResetWarning,0836.4,5.00,000.00,029.6,027.4,000.0,037.7,030.9,28.9,0000.0,0004.96,0009.52,0004.28
2023-07-19 19:59:00,SystemResetWarning,0836.4,5.00,000.00,029.5,025.7,000.0,037.5,030.6,29.3,0000.0,0004.88,0009.33,0004.26
